GW4987 Weather Reports


Display with metric or nautical units.
time (UTC)temp
F
wind
direction
speed
MPH
gust
MPH
rain 1hr
in
rain 24hr
in
rain mn
in
humidity
%
barometer
mb
20260509030008 71 261 5.0 12.0 0.00 0.00 0.00 21 1018.2
20260509025546 71 231 11.0 13.0 0.00 0.00 0.00 21 1018.0
20260509025047 71 213 5.0 10.0 0.00 0.00 0.00 21 1018.0
20260509024508 71 228 9.0 13.0 0.00 0.00 0.00 21 1018.0
20260509024008 71 232 5.0 13.0 0.00 0.00 0.00 21 1017.7
20260509023546 71 222 5.0 13.0 0.00 0.00 0.00 21 1017.8
20260509023008 72 220 5.0 12.0 0.00 0.00 0.00 21 1017.8
20260509022546 72 242 10.0 13.0 0.00 0.00 0.00 21 1017.6
20260509022046 72 207 7.0 11.0 0.00 0.00 0.00 21 1017.7
20260509021547 73 233 6.0 10.0 0.00 0.00 0.00 21 1017.5
20260509021009 73 240 4.0 9.0 0.00 0.00 0.00 21 1017.7
20260509020547 73 217 5.0 13.0 0.00 0.00 0.00 20 1017.6
20260509020046 74 223 12.0 15.0 0.00 0.00 0.00 20 1017.5
20260509015509 75 228 8.0 14.0 0.00 0.00 0.00 19 1017.4
20260509015009 75 228 8.0 14.0 0.00 0.00 0.00 19 1017.5
20260509014546 75 228 8.0 14.0 0.00 0.00 0.00 19 1017.4
20260509014047 75 246 12.0 21.0 0.00 0.00 0.00 19 1017.4
20260509013547 76 225 9.0 21.0 0.00 0.00 0.00 19 1017.3
20260509013047 76 216 7.0 12.0 0.00 0.00 0.00 19 1017.5
20260509012547 76 241 7.0 16.0 0.00 0.00 0.00 19 1017.4
20260509012008 76 226 9.0 14.0 0.00 0.00 0.00 19 1017.3
20260509011547 77 199 11.0 18.0 0.00 0.00 0.00 19 1017.4
20260509011047 77 227 11.0 22.0 0.00 0.00 0.00 19 1017.5
20260509010508 77 266 15.0 16.0 0.00 0.00 0.00 19 1017.6
20260509010008 77 220 18.0 26.0 0.00 0.00 0.00 19 1017.4
20260509005547 77 207 11.0 19.0 0.00 0.00 0.00 19 1017.5
20260509005008 78 232 10.0 15.0 0.00 0.00 0.00 19 1017.6
20260509004547 78 265 16.0 19.0 0.00 0.00 0.00 19 1017.5
20260509004047 78 222 17.0 21.0 0.00 0.00 0.00 19 1017.3
20260509003546 79 212 9.0 12.0 0.00 0.00 0.00 18 1017.4
20260509003008 79 195 9.0 19.0 0.00 0.00 0.00 18 1017.6
20260509002547 78 253 13.0 17.0 0.00 0.00 0.00 18 1017.3
20260509002047 78 191 7.0 18.0 0.00 0.00 0.00 18 1017.3
20260509001509 79 217 13.0 18.0 0.00 0.00 0.00 18 1017.5
20260508235546 79 216 12.0 20.0 0.00 0.00 0.00 18 1017.3
20260508235046 79 192 11.0 20.0 0.00 0.00 0.00 18 1017.6
20260508234547 79 247 7.0 20.0 0.00 0.00 0.00 18 1017.6
20260508232508 78 219 7.0 24.0 0.00 0.00 0.00 18 1017.8
20260508232008 79 297 5.0 17.0 0.00 0.00 0.00 18 1017.6
20260508231547 79 209 9.0 14.0 0.00 0.00 0.00 18 1017.7
20260508225547 79 204 10.0 16.0 0.00 0.00 0.00 18 1017.8
20260508225009 80 252 6.0 19.0 0.00 0.00 0.00 17 1017.7
20260508224547 79 246 8.0 23.0 0.00 0.00 0.00 18 1017.7
20260508224047 79 248 13.0 24.0 0.00 0.00 0.00 18 1017.7
20260508223547 80 212 10.0 14.0 0.00 0.00 0.00 17 1017.7
20260508223008 78 254 9.0 20.0 0.00 0.00 0.00 18 1017.9
20260508222547 80 252 15.0 21.0 0.00 0.00 0.00 17 1017.8
20260508222047 80 236 11.0 13.0 0.00 0.00 0.00 17 1017.9
20260508221546 78 267 11.0 20.0 0.00 0.00 0.00 18 1018.0
20260508221046 80 275 8.0 11.0 0.00 0.00 0.00 18 1017.9
20260508220547 80 294 9.0 16.0 0.00 0.00 0.00 17 1018.0
20260508220008 81 234 9.0 15.0 0.00 0.00 0.00 17 1018.0
20260508215546 78 248 7.0 15.0 0.00 0.00 0.00 18 1018.1
20260508215047 79 274 10.0 25.0 0.00 0.00 0.00 17 1018.2
20260508211547 80 262 13.0 22.0 0.00 0.00 0.00 16 1018.2
20260508211008 80 253 17.0 21.0 0.00 0.00 0.00 16 1018.3
20260508210547 80 288 12.0 23.0 0.00 0.00 0.00 16 1018.5
20260508210046 79 249 13.0 16.0 0.00 0.00 0.00 17 1018.4
20260508205508 78 203 8.0 17.0 0.00 0.00 0.00 17 1018.6
20260508205047 80 276 12.0 20.0 0.00 0.00 0.00 17 1018.5
20260508204547 78 280 7.0 23.0 0.00 0.00 0.00 17 1018.4
20260508204047 79 232 7.0 11.0 0.00 0.00 0.00 17 1018.5
20260508203547 78 269 8.0 21.0 0.00 0.00 0.00 17 1018.5
20260508203047 80 265 12.0 22.0 0.00 0.00 0.00 17 1018.7
20260508202547 79 224 5.0 16.0 0.00 0.00 0.00 18 1018.5
20260508202009 80 253 11.0 14.0 0.00 0.00 0.00 17 1018.7
20260508201547 81 241 9.0 14.0 0.00 0.00 0.00 17 1018.6
20260508201047 80 249 5.0 10.0 0.00 0.00 0.00 17 1018.7
20260508200509 79 295 13.0 20.0 0.00 0.00 0.00 17 1018.7
20260508200009 80 175 4.0 14.0 0.00 0.00 0.00 16 1018.7
20260508195547 80 265 7.0 11.0 0.00 0.00 0.00 16 1018.8
20260508195009 78 271 8.0 17.0 0.00 0.00 0.00 17 1018.7
20260508194546 78 207 14.0 21.0 0.00 0.00 0.00 17 1018.9
20260508194047 79 190 10.0 15.0 0.00 0.00 0.00 17 1018.9
20260508193546 80 218 10.0 13.0 0.00 0.00 0.00 16 1018.9
20260508193009 79 345 2.0 7.0 0.00 0.00 0.00 15 1018.8
20260508192546 78 256 14.0 21.0 0.00 0.00 0.00 16 1019.0
20260508192046 79 211 14.0 17.0 0.00 0.00 0.00 16 1018.9
20260508191509 78 186 6.0 14.0 0.00 0.00 0.00 17 1018.9
20260508191009 78 239 10.0 18.0 0.00 0.00 0.00 17 1019.2
20260508190547 78 239 15.0 17.0 0.00 0.00 0.00 17 1019.3
20260508190009 79 199 5.0 8.0 0.00 0.00 0.00 16 1019.0
20260508185547 79 201 12.0 14.0 0.00 0.00 0.00 17 1019.3
20260508185047 77 300 14.0 18.0 0.00 0.00 0.00 17 1019.4
20260508184547 78 267 12.0 15.0 0.00 0.00 0.00 16 1019.4
20260508184009 78 284 5.0 12.0 0.00 0.00 0.00 17 1019.2
20260508183546 78 148 3.0 5.0 0.00 0.00 0.00 16 1019.3
20260508183046 76 189 10.0 18.0 0.00 0.00 0.00 17 1019.5
20260508182509 77 253 14.0 20.0 0.00 0.00 0.00 16 1019.3
20260508182008 79 298 3.0 7.0 0.00 0.00 0.00 16 1019.5
20260508181547 78 251 4.0 15.0 0.00 0.00 0.00 16 1019.6
20260508181008 76 317 11.0 12.0 0.00 0.00 0.00 17 1019.8
20260508180546 78 296 10.0 13.0 0.00 0.00 0.00 17 1019.5
20260508180047 77 258 7.0 14.0 0.00 0.00 0.00 17 1019.4
20260508175547 78 137 2.0 6.0 0.00 0.00 0.00 16 1019.6
20260508175008 78 121 2.0 6.0 0.00 0.00 0.00 16 1019.8
20260508174547 76 311 6.0 11.0 0.00 0.00 0.00 16 1019.7
20260508174047 77 268 7.0 13.0 0.00 0.00 0.00 16 1019.7
20260508173547 76 236 9.0 10.0 0.00 0.00 0.00 17 1019.7
20260508173008 75 211 9.0 14.0 0.00 0.00 0.00 17 1019.8
20260508172547 76 269 9.0 15.0 0.00 0.00 0.00 17 1019.8
20260508172047 76 283 12.0 12.0 0.00 0.00 0.00 17 1019.8
20260508163009 76 305 3.0 9.0 0.00 0.00 0.00 17 1019.7
20260508162546 74 296 7.0 8.0 0.00 0.00 0.00 18 1019.9
20260508162047 74 275 5.0 11.0 0.00 0.00 0.00 18 1019.7
20260508161547 74 264 6.0 11.0 0.00 0.00 0.00 18 1019.8
20260508161009 73 234 2.0 10.0 0.00 0.00 0.00 18 1019.7
20260508160547 74 259 6.0 13.0 0.00 0.00 0.00 18 1019.9
20260508160047 73 240 8.0 11.0 0.00 0.00 0.00 18 1019.8
20260508155509 74 315 7.0 10.0 0.00 0.00 0.00 17 1019.7
20260508155047 74 324 4.0 9.0 0.00 0.00 0.00 18 1019.8
20260508154547 74 294 5.0 10.0 0.00 0.00 0.00 18 1019.7
20260508154048 73 290 7.0 9.0 0.00 0.00 0.00 18 1019.6
20260508153547 72 292 3.0 9.0 0.00 0.00 0.00 17 1019.7
20260508153047 72 282 7.0 12.0 0.00 0.00 0.00 18 1019.7
20260508152547 71 255 6.0 13.0 0.00 0.00 0.00 18 1019.7
20260508152008 71 285 5.0 10.0 0.00 0.00 0.00 18 1019.8
20260508151527 71 273 7.0 11.0 0.00 0.00 0.00 18 1019.7
20260508151047 71 254 10.0 11.0 0.00 0.00 0.00 17 1019.8
20260508150508 71 259 8.0 13.0 0.00 0.00 0.00 17 1019.8
20260508150008 70 267 5.0 13.0 0.00 0.00 0.00 17 1019.6
20260508145547 71 243 10.0 10.0 0.00 0.00 0.00 17 1019.6
20260508145008 70 247 10.0 11.0 0.00 0.00 0.00 17 1019.7
20260508144546 70 296 3.0 9.0 0.00 0.00 0.00 17 1019.7
20260508144047 69 212 3.0 10.0 0.00 0.00 0.00 18 1019.5
20260508142047 69 169 2.0 3.0 0.00 0.00 0.00 19 1019.6
20260508141509 68 283 0.0 2.0 0.00 0.00 0.00 23 1019.6
20260508141009 66 279 2.0 3.0 0.00 0.00 0.00 22 1019.7
20260508140546 65 252 3.0 3.0 0.00 0.00 0.00 23 1019.6
20260508140047 64 243 2.0 3.0 0.00 0.00 0.00 25 1019.4
20260508135546 63 277 2.0 3.0 0.00 0.00 0.00 25 1019.6
20260508135046 62 262 3.0 4.0 0.00 0.00 0.00 26 1019.4
20260508134546 61 224 4.0 5.0 0.00 0.00 0.00 24 1019.4
20260508132509 56 273 4.0 5.0 0.00 0.00 0.00 28 1019.0
20260508132009 56 261 6.0 7.0 0.00 0.00 0.00 26 1019.3
20260508131547 56 261 5.0 7.0 0.00 0.00 0.00 27 1019.0
20260508131009 56 253 4.0 6.0 0.00 0.00 0.00 26 1019.2
20260508130547 56 247 4.0 5.0 0.00 0.00 0.00 27 1018.9
20260508130046 56 247 3.0 4.0 0.00 0.00 0.00 26 1018.8
20260508125546 54 263 3.0 3.0 0.00 0.00 0.00 27 1018.8
20260508125047 54 260 2.0 4.0 0.00 0.00 0.00 27 1019.0
20260508124547 53 267 3.0 4.0 0.00 0.00 0.00 28 1018.7
20260508124047 52 267 3.0 4.0 0.00 0.00 0.00 30 1018.8
20260508123547 52 8 0.0 3.0 0.00 0.00 0.00 33 1018.9
20260508123008 50 275 2.0 3.0 0.00 0.00 0.00 33 1018.9
20260508122547 52 256 3.0 4.0 0.00 0.00 0.00 31 1018.9
20260508122047 52 249 0.0 2.0 0.00 0.00 0.00 29 1019.0
20260508121547 53 92 2.0 3.0 0.00 0.00 0.00 28 1018.8
20260508121047 54 80 3.0 3.0 0.00 0.00 0.00 27 1019.0
20260508120547 55 234 2.0 3.0 0.00 0.00 0.00 27 1018.8
20260508120008 56 236 2.0 3.0 0.00 0.00 0.00 26 1018.6
20260508115546 56 55 0.0 2.0 0.00 0.00 0.00 25 1018.6
20260508115047 58 54 2.0 2.0 0.00 0.00 0.00 23 1018.6
20260508114547 58 346 0.0 2.0 0.00 0.00 0.00 22 1018.8
20260508114009 59 299 3.0 3.0 0.00 0.00 0.00 22 1018.6
20260508113547 59 261 3.0 5.0 0.00 0.00 0.00 22 1018.7
20260508113008 59 271 4.0 5.0 0.00 0.00 0.00 22 1018.6
20260508112553 59 266 5.0 5.0 0.00 0.00 0.00 22 1018.5
20260508112047 59 274 5.0 6.0 0.00 0.00 0.00 22 1018.8
20260508111546 60 269 5.0 6.0 0.00 0.00 0.00 21 1018.6
20260508111008 60 266 6.0 8.0 0.00 0.00 0.00 20 1018.7
20260508110547 60 261 6.0 7.0 0.00 0.00 0.00 20 1018.5
20260508110047 61 262 6.0 7.0 0.00 0.00 0.00 20 1018.6
20260508105547 60 263 6.0 9.0 0.00 0.00 0.00 20 1018.7
20260508103526 60 256 5.0 6.0 0.00 0.00 0.00 22 1018.2
20260508103046 60 267 6.0 8.0 0.00 0.00 0.00 21 1018.6
20260508102547 60 258 5.0 8.0 0.00 0.00 0.00 21 1018.4
20260508102008 60 266 5.0 8.0 0.00 0.00 0.00 21 1018.4
20260508101546 60 267 4.0 6.0 0.00 0.00 0.00 22 1018.4
20260508101047 60 256 6.0 8.0 0.00 0.00 0.00 21 1018.6
20260508100547 60 257 6.0 7.0 0.00 0.00 0.00 22 1018.5
20260508100008 59 273 5.0 7.0 0.00 0.00 0.00 22 1018.5
20260508095547 59 266 4.0 8.0 0.00 0.00 0.00 22 1018.5
20260508095008 59 251 4.0 6.0 0.00 0.00 0.00 23 1018.5
20260508094546 60 260 5.0 8.0 0.00 0.00 0.00 22 1018.5
20260508094048 59 236 6.0 9.0 0.00 0.00 0.00 22 1018.5
20260508093546 59 254 6.0 7.0 0.00 0.00 0.00 22 1018.5
20260508093008 58 255 6.0 6.0 0.00 0.00 0.00 23 1018.5
20260508092547 56 263 5.0 5.0 0.00 0.00 0.00 24 1018.6
20260508092047 53 260 3.0 3.0 0.00 0.00 0.00 27 1018.5
20260508091510 54 277 3.0 4.0 0.00 0.00 0.00 27 1018.6
20260508091008 55 239 6.0 7.0 0.00 0.00 0.00 26 1018.6
20260508090547 54 252 2.0 4.0 0.00 0.00 0.00 27 1018.5
20260508090047 56 243 3.0 4.0 0.00 0.00 0.00 25 1018.6
20260508084008 60 292 2.0 4.0 0.00 0.00 0.00 22 1018.7
20260508083546 60 261 3.0 7.0 0.00 0.00 0.00 22 1018.8
20260508083047 60 257 5.0 8.0 0.00 0.00 0.00 22 1018.8
20260508082509 59 264 5.0 6.0 0.00 0.00 0.00 22 1018.9
20260508082009 60 262 4.0 7.0 0.00 0.00 0.00 22 1018.9
20260508081547 60 246 4.0 5.0 0.00 0.00 0.00 22 1018.9
20260508081009 60 251 4.0 5.0 0.00 0.00 0.00 22 1018.8
20260508080547 60 267 5.0 7.0 0.00 0.00 0.00 22 1018.7
20260508080047 61 244 7.0 8.0 0.00 0.00 0.00 22 1019.0
20260508075547 61 248 4.0 7.0 0.00 0.00 0.00 22 1019.0
20260508075009 61 258 6.0 8.0 0.00 0.00 0.00 22 1018.8
20260508073009 61 242 4.0 6.0 0.00 0.00 0.00 22 1019.2
20260508072547 60 279 4.0 5.0 0.00 0.00 0.00 23 1019.0
20260508072047 60 254 5.0 6.0 0.00 0.00 0.00 23 1019.0
20260508071547 60 259 4.0 7.0 0.00 0.00 0.00 23 1019.2
20260508071047 60 261 5.0 5.0 0.00 0.00 0.00 23 1019.0
20260508070511 60 253 3.0 5.0 0.00 0.00 0.00 22 1019.3
20260508070005 60 287 0.0 3.0 0.00 0.00 0.00 22 1019.2
20260508065547 60 73 0.0 3.0 0.00 0.00 0.00 22 1019.0
20260508065048 61 201 2.0 4.0 0.00 0.00 0.00 21 1019.2
20260508064509 61 173 2.0 4.0 0.00 0.00 0.00 21 1018.9
20260508064009 61 183 2.0 4.0 0.00 0.00 0.00 21 1018.9
20260508063547 62 131 0.0 6.0 0.00 0.00 0.00 20 1019.0
20260508063009 62 223 3.0 8.0 0.00 0.00 0.00 20 1018.8
20260508062547 62 160 2.0 3.0 0.00 0.00 0.00 20 1018.8
20260508062047 63 262 5.0 5.0 0.00 0.00 0.00 20 1019.0
20260508061547 63 240 2.0 12.0 0.00 0.00 0.00 20 1018.8
20260508061010 63 235 5.0 7.0 0.00 0.00 0.00 20 1018.7
20260508060547 64 238 5.0 9.0 0.00 0.00 0.00 19 1018.8
20260508060046 63 263 8.0 14.0 0.00 0.00 0.00 19 1018.7
20260508055547 63 261 8.0 11.0 0.00 0.00 0.00 19 1018.9
20260508055008 63 247 6.0 15.0 0.00 0.00 0.00 19 1018.7
20260508054547 63 264 6.0 10.0 0.00 0.00 0.00 19 1018.7
20260508054047 64 262 8.0 15.0 0.00 0.00 0.00 19 1018.8
20260508053547 64 256 7.0 11.0 0.00 0.00 0.00 19 1018.7
20260508053046 64 233 12.0 15.0 0.00 0.00 0.00 19 1018.9
20260508052547 64 261 8.0 12.0 0.00 0.00 0.00 19 1019.0
20260508052009 64 238 10.0 15.0 0.00 0.00 0.00 19 1018.9
20260508051547 64 266 11.0 14.0 0.00 0.00 0.00 19 1018.9
20260508051047 64 249 11.0 11.0 0.00 0.00 0.00 20 1018.9
20260508050509 64 283 6.0 10.0 0.00 0.00 0.00 20 1018.9
20260508050009 64 267 6.0 11.0 0.00 0.00 0.00 20 1019.0
20260508045547 65 265 7.0 12.0 0.00 0.00 0.00 20 1018.7
20260508045047 65 259 9.0 15.0 0.00 0.00 0.00 20 1018.9
20260508044547 65 208 9.0 15.0 0.00 0.00 0.00 20 1018.8
20260508044047 65 225 8.0 12.0 0.00 0.00 0.00 20 1018.7
20260508043547 65 275 12.0 15.0 0.00 0.00 0.00 20 1018.8
20260508043009 65 243 8.0 15.0 0.00 0.00 0.00 21 1018.8
20260508042547 65 240 6.0 15.0 0.00 0.00 0.00 21 1018.9
20260508042047 65 241 7.0 16.0 0.00 0.00 0.00 21 1018.9
20260508041510 65 243 12.0 14.0 0.00 0.00 0.00 21 1018.7
20260508041009 64 250 6.0 12.0 0.00 0.00 0.00 22 1018.8
20260508040546 65 246 9.0 14.0 0.00 0.00 0.00 21 1018.6
20260508040009 65 243 13.0 16.0 0.00 0.00 0.00 22 1018.8
20260508032509 65 255 4.0 12.0 0.00 0.00 0.00 22 1018.2
20260508032009 65 277 9.0 12.0 0.00 0.00 0.00 22 1018.2
20260508031547 65 266 6.0 10.0 0.00 0.00 0.00 22 1018.3